Regional Weather Roundup
Issued by NWS Little Rock, AR

Home | Current Version | Previous Version | Text Only | Print | Product List | Glossary Off
Versions: 1 2 3 4 5 6 7 8 9 10 11 12 13 14 15 16 17 18 19 20 21 22 23 24 25 26 27 28 29 30 31 32 33 34 35 36 37 38 39 40 41 42 43 44 45 46 47 48 49

000
ASUS44 KLZK 281705
RWRLZK

WEATHER ROUNDUP FOR ARKANSAS
NATIONAL WEATHER SERVICE LITTLE ROCK AR
1100 AM CST SAT FEB 28 2015

NOTE: "FAIR" INDICATES FEW OR NO CLOUDS BELOW 12,000 FEET WITH NO
SIGNIFICANT WEATHER AND/OR OBSTRUCTIONS TO VISIBILITY.

ARZ001-003-010-029-281800-
NORTHWEST ARKANSAS

CITY           SKY/WX    TMP DP  RH WIND       PRES   REMARKS
FAYETTEVILLE   LGT SNOW  25  23  92 CALM      30.44F VSB 1
FORT SMITH     MIX PCPN  25  20  81 E9        30.49F WCI  15
HARRISON       LGT SNOW  20  17  88 SE9       30.48S VSB 1   WCI   9
BENTONVILLE    CLOUDY    25  19  80 SE10      30.45S VSB 1   WCI  15
ROGERS         LGT SNOW  23  19  86 E8        30.44F VSB 1   WCI  14
SILOAM SPGS    CLOUDY    25  18  74 SE7       30.45F VSB 3/4 WCI  17
HIGHFILL       LGT SNOW  24  20  84 SE7       30.43F VSB 1   WCI  16
SPRINGDALE     LGT SNOW  23  19  86 E8        30.46S FOG     WCI  14
$$

ARZ004-005-016-281800-
NORTH CENTRAL ARKANSAS

CITY           SKY/WX    TMP DP  RH WIND       PRES   REMARKS
BATESVILLE     CLOUDY    25  18  74 E7        30.57S WCI  17
FLIPPIN        CLOUDY    21  16  79 E7        30.52S WCI  13
MTN HOME       LGT SNOW  22  17  81 E9        30.51S WCI  12
$$

ARZ040-041-281800-
WEST CENTRAL ARKANSAS

CITY           SKY/WX    TMP DP  RH WIND       PRES   REMARKS
MENA           CLOUDY    30  23  74 E7        30.44F WCI  23
MOUNT IDA      CLOUDY    29  18  63 E3        30.46S
$$

ARZ009-017-025-026-028-281800-
NORTHEAST ARKANSAS

CITY           SKY/WX    TMP DP  RH WIND       PRES   REMARKS
CORNING        FAIR      25  19  80 NE12      30.60F WCI  14
JONESBORO      CLOUDY    26  20  77 NE14      30.58F WCI  14
NEWPORT        CLOUDY    27  20  75 NE12      30.59F WCI  17
WALNUT RIDGE   PTSUNNY   25  18  74 NE15      30.59F WCI  12
BLYTHEVILLE    CLOUDY    29  19  66 E8        30.59F WCI  21
$$

ARZ022-023-033-042-044-281800-
CENTRAL ARKANSAS

CITY           SKY/WX    TMP DP  RH WIND       PRES   REMARKS
LITTLE ROCK    CLOUDY    31  19  61 NE10      30.54F WCI  22
N LITTLE ROCK  CLOUDY    29  22  75 E10       30.54F WCI  20
JACKSONVILLE   CLOUDY    30  19  64 NE7       30.53F WCI  23
SEARCY         CLOUDY    29  20  69 NE9       30.57F WCI  20
HOT SPRINGS    CLOUDY    31  18  58 SE6       30.50S WCI  25
RUSSELLVILLE   CLOUDY    27  18  69 SE5       30.52S WCI  22
CLINTON        PTSUNNY   28  19  69 E7        30.55F WCI  21
$$

ARZ036-281800-
EAST ARKANSAS

CITY           SKY/WX    TMP DP  RH WIND       PRES   REMARKS
WEST MEMPHIS   CLOUDY    32  17  54 E9        30.55S WCI  24
$$

ARZ050-053-066-070-073-281800-
SOUTHWEST ARKANSAS

CITY           SKY/WX    TMP DP  RH WIND       PRES   REMARKS
ARKADELPHIA    FAIR      33  21  61 NE7       30.52R WCI  27
CAMDEN         MOSUNNY   37  21  52 MISG      30.49F
TEXARKANA      CLOUDY    31  22  69 E8        30.46F WCI  23
EL DORADO      CLOUDY    37  23  56 NE8       30.47F
DE QUEEN       MIX PCPN  30  22  72 E9        30.46F WCI  22
$$

ARZ056-057-069-281800-
SOUTHEAST ARKANSAS

CITY           SKY/WX    TMP DP  RH WIND       PRES   REMARKS
PINE BLUFF     CLOUDY    31  22  69 NE8       30.53F WCI  23
STUTTGART      CLOUDY    32  19  59 NE13      30.55F WCI  22
MONTICELLO     SUNNY     38  23  55 NE12      30.49F

$$




USA.gov is the U.S. government's official web portal to all federal, state and local government web resources and services.